CAPE
2 4 6 5 3 3 3 1 0 0 0 0 0 0 0 1 0 0 0 0 0 0 0 0 0 0 0 0 0 0 0 0 0 0 0 0 0 0 0 0 0 11 11 200 505
0 1 2 2 2 9 12 1 3 1 1 0 0 0 0 0 0 0 0 0 0 0 0 0 0 0 0 0 0 0 0 0 0 0 0 0 0 0 0 0 0 0 4 398 356
3 0 3 8 10 17 19 7 6 1 0 0 0 3 0 0 0 0 0 1 0 0 0 0 0 0 0 0 0 0 0 0 0 0 0 0 0 0 0 0 9 0 0 334 383
13 14 14 13 11 26 22 11 9 1 0 0 1 1 0 0 0 0 0 1 0 0 0 0 0 0 0 0 0 0 0 0 0 0 0 0 0 0 0 0 0 0 0 168 155
29 27 26 14 5 8 9 3 1 0 0 1 4 3 0 0 0 0 0 0 0 0 0 0 0 0 0 0 0 0 0 0 0 0 0 0 0 0 0 0 1 0 54 59 6
54 38 22 3 4 5 2 0 0 0 1 2 3 5 0 0 0 0 0 0 0 0 0 0 0 0 0 0 0 0 0 0 0 0 0 0 0 0 0 0 0 11 171 83 17
24 30 15 11 5 5 0 0 0 0 2 3 7 8 0 0 0 0 0 0 0 0 0 0 0 0 0 0 0 0 0 0 0 0 0 0 0 0 0 0 0 45 173 122 69
14 18 32 30 25 3 0 0 0 0 4 0 2 2 0 0 0 0 0 0 0 0 0 0 0 0 0 0 0 0 0 0 0 0 0 0 0 0 0 0 0 46 128 137 44
24 20 26 36 25 0 0 0 0 0 0 0 1 0 0 0 0 0 0 0 0 0 0 0 0 0 0 0 0 0 0 0 0 0 0 0 0 0 0 0 0 24 129 153 147
17 21 29 29 6 0 0 0 0 0 0 1 0 0 0 0 0 0 0 0 0 0 0 0 0 0 0 0 0 0 0 0 1 1 0 0 0 0 0 0 0 10 78 208 162
11 16 29 22 0 0 0 0 0 0 0 0 0 0 0 0 0 0 0 6 2 0 0 0 0 0 0 0 0 0 7 7 0 0 0 0 0 0 0 0 0 9 40 189 196
10 10 14 19 0 0 3 11 5 3 2 0 0 0 0 0 0 0 0 4 19 4 0 0 0 0 0 0 0 0 0 0 0 0 0 0 0 0 0 0 0 4 36 117 288
17 12 2 6 0 5 32 20 17 14 5 0 0 0 0 0 0 0 0 0 24 3 1 1 0 0 0 0 0 0 0 0 0 0 0 0 0 0 0 0 0 0 0 24 223
33 22 16 1 0 30 16 24 18 17 6 0 0 0 0 0 0 0 0 1 2 11 0 1 0 0 0 0 0 0 0 0 0 0 0 0 0 0 0 0 0 0 0 0 45
37 22 15 5 17 17 25 19 18 9 1 0 0 0 0 0 0 0 0 0 0 0 5 0 0 0 0 2 0 0 0 2 0 0 0 0 0 0 0 1 0 0 0 0 0
30 24 20 4 30 46 27 17 31 27 1 0 0 0 0 0 0 0 0 0 0 1 1 2 0 1 0 0 0 0 0 0 2 0 0 0 0 0 0 1 0 0 0 0 0
37 27 12 26 15 23 40 63 34 0 0 0 0 0 0 0 0 0 0 0 0 0 0 0 1 5 0 0 0 0 3 9 8 8 0 0 0 0 0 0 0 0 0 2 2
39 30 6 14 31 37 86 56 8 0 0 0 0 0 0 0 0 0 0 0 0 0 1 1 3 2 3 0 0 0 0 0 0 23 14 0 6 0 0 0 0 0 0 0 0
41 15 13 32 46 39 81 47 0 0 0 0 0 0 0 0 0 0 0 14 0 0 0 0 0 0 11 2 0 6 5 0 2 5 30 11 6 0 0 0 0 0 0 0 0
31 33 18 30 58 87 62 4 0 0 0 0 0 0 0 1 0 0 24 8 5 0 0 0 0 0 5 18 3 0 1 4 10 13 9 16 33 47 0 0 2 1 5 4 15
41 48 34 26 92 86 64 8 0 0 0 0 0 1 1 0 0 0 10 14 1 5 7 1 26 1 12 24 13 0 1 19 12 18 21 33 30 11 15 0 0 0 1 12 2
59 59 91 113 62 52 48 13 1 2 2 0 0 2 6 4 0 1 0 0 0 0 41 0 31 37 33 1 34 23 9 6 19 18 31 75 10 1 0 0 0 0 0 0 0
60 47 65 185 70 79 33 16 11 14 9 17 7 4 5 12 2 0 0 0 0 0 0 39 19 37 50 43 28 44 20 27 44 41 4 96 23 0 1 0 0 0 0 0 0
102 102 50 177 90 46 34 43 28 29 34 33 27 31 34 15 16 16 9 2 0 0 0 8 49 29 19 21 22 73 73 56 65 68 30 26 15 5 0 0 0 0 0 0 0
97 71 47 71 63 65 57 55 27 34 37 36 42 46 53 40 33 39 51 23 3 0 0 22 65 85 44 40 14 35 73 20 56 72 39 32 29 26 0 0 0 0 0 0 0
229 63 79 68 79 48 71 44 53 54 49 44 49 59 77 62 64 73 57 34 32 9 12 42 14 1 18 5 0 23 19 30 15 1 0 3 16 14 10 10 0 0 0 0 0
121 128 139 38 60 85 80 33 42 44 34 69 68 58 54 88 64 65 25 18 42 24 33 31 10 14 4 4 1 0 0 1 7 11 13 53 54 1 0 0 0 0 0 0 0
CIN
-0 -0 -0 -0 -0 -0 -0 -0 -0 -0 -0 -0 -0 -0 -0 -0 -0 -0 -0 -0 -0 -0 -0 -0 -0 -0 -0 -0 -0 -0 -0 -0 -0 -0 -0 -0 -0 -0 -0 -0 -0 -13 -19 -29 -68
-0 -0 -0 -0 -0 -0 -0 -0 -0 -0 -0 -0 -0 -0 -0 -0 -0 -0 -0 -0 -0 -0 -0 -0 -0 -0 -0 -0 -0 -0 -0 -0 -0 -0 -0 -0 -0 -0 -0 -0 -0 -0 -7 -74 -90
-1 -0 -0 -0 -0 -0 -0 -0 -0 -0 -0 -0 -0 -0 -0 -0 -0 -0 -0 -283 -0 -0 -0 -0 -0 -0 -0 -0 -0 -0 -0 -0 -0 -0 -0 -0 -0 -0 -0 -0 -0 -0 -0 -32 -55
-1 -0 -0 -0 -0 -0 -0 -0 -0 -0 -0 -0 -0 -0 -0 -0 -0 -0 -0 -101 -0 -0 -0 -0 -0 -0 -0 -0 -0 -0 -0 -0 -0 -0 -0 -0 -0 -0 -0 -0 -0 -0 -0 -47 -57
-1 -0 -0 -0 -0 -0 -0 -0 -0 -0 -0 -0 -0 -0 -0 -0 -0 -0 -0 -0 -0 -0 -0 -0 -0 -0 -0 -0 -0 -0 -0 -0 -0 -0 -0 -0 -0 -0 -0 -0 -1 -0 -81 -62 -98
-0 -0 -0 -0 -0 -0 -0 -0 -0 -0 -0 -0 -0 -1 -0 -0 -0 -0 -0 -0 -0 -0 -0 -0 -0 -0 -0 -0 -0 -0 -0 -0 -0 -0 -0 -0 -0 -0 -0 -0 -0 -23 -55 -72 -103
-0 -0 -0 -0 -0 -0 -0 -0 -0 -0 -0 -0 -0 -0 -0 -0 -0 -0 -0 -0 -0 -0 -0 -0 -0 -0 -0 -0 -0 -0 -0 -0 -0 -0 -0 -0 -0 -0 -0 -0 -0 -21 -40 -69 -104
-0 -0 -0 -0 -0 -0 -0 -0 -0 -0 -0 -0 -0 -0 -0 -0 -0 -0 -0 -0 -0 -0 -0 -0 -0 -0 -0 -0 -0 -0 -0 -0 -0 -0 -0 -0 -0 -0 -0 -0 -0 -10 -30 -70 -93
-0 -0 -0 -0 -0 -0 -0 -0 -0 -0 -0 -0 -0 -0 -0 -0 -0 -0 -0 -0 -0 -0 -0 -0 -0 -0 -0 -0 -0 -0 -0 -0 -0 -0 -0 -0 -0 -0 -0 -0 -0 -0 -25 -37 -66
-0 -0 -0 -0 -0 -0 -0 -0 -0 -0 -0 -0 -0 -0 -0 -0 -0 -0 -0 -0 -0 -0 -0 -0 -0 -0 -0 -0 -0 -0 -0 -0 -0 -0 -0 -0 -0 -0 -0 -0 -0 -3 -19 -10 -45
-0 -0 -0 -0 -0 -0 -0 -0 -0 -0 -0 -0 -0 -0 -0 -0 -0 -0 -0 -21 -0 -0 -0 -0 -0 -0 -0 -0 -0 -0 -0 -0 -0 -0 -0 -0 -0 -0 -0 -0 -0 -6 -0 -5 -21
-2 -0 -0 -0 -0 -0 -3 -0 -0 -0 -0 -0 -0 -0 -0 -0 -0 -0 -0 -0 -0 -0 -0 -0 -0 -0 -0 -0 -0 -0 -0 -0 -0 -0 -0 -0 -0 -0 -0 -0 -0 -0 -57 -19 -13
-2 -0 -0 -0 -0 -0 -0 -0 -0 -0 -0 -0 -0 -0 -0 -0 -0 -0 -0 -0 -4 -0 -0 -0 -0 -0 -0 -0 -0 -0 -0 -0 -0 -0 -0 -0 -0 -0 -0 -0 -0 -0 -0 -0 -10
-1 -0 -0 -0 -1 -0 -0 -0 -0 -0 -0 -0 -0 -0 -0 -0 -0 -0 -0 -16 -7 -0 -0 -0 -0 -0 -0 -0 -0 -0 -0 -0 -0 -0 -0 -0 -0 -0 -0 -0 -0 -0 -0 -0 -4
-1 -0 -0 -0 -0 -0 -0 -0 -0 -0 -0 -0 -0 -0 -0 -0 -0 -0 -0 -0 -0 -0 -2 -0 -0 -0 -0 -0 -0 -0 -0 -1 -0 -0 -0 -0 -0 -0 -0 -0 -0 -0 -0 -0 -0
-1 -1 -0 -0 -1 -0 -0 -0 -0 -0 -0 -0 -0 -0 -0 -0 -0 -0 -0 -0 -0 -0 -0 -1 -0 -0 -0 -0 -0 -0 -0 -0 -0 -0 -0 -0 -0 -0 -0 -0 -0 -0 -0 -0 -0
-3 -1 -0 -0 -0 -0 -0 -0 -0 -0 -0 -0 -0 -0 -0 -0 -0 -0 -0 -0 -0 -0 -0 -0 -0 -0 -0 -0 -0 -0 -0 -0 -0 -0 -0 -0 -0 -0 -0 -0 -0 -0 -0 -0 -0
-3 -3 -0 -0 -0 -0 -0 -0 -0 -0 -0 -0 -0 -0 -0 -0 -0 -0 -0 -0 -0 -0 -0 -0 -0 -0 -0 -0 -0 -0 -0 -0 -0 -0 -0 -0 -0 -0 -0 -0 -0 -0 -0 -0 -0
-6 -0 -0 -0 -0 -0 -0 -0 -0 -0 -0 -0 -0 -0 -0 -0 -0 -0 -0 -0 -0 -0 -0 -0 -0 -0 -1 -3 -0 -0 -0 -0 -0 -0 -0 -0 -0 -0 -0 -0 -0 -0 -0 -0 -0
-0 -0 -0 -0 -0 -0 -0 -0 -0 -0 -0 -0 -0 -0 -0 -0 -0 -0 -0 -1 -0 -0 -0 -0 -0 -0 -1 -7 -1 -0 -0 -0 -0 -0 -0 -0 -2 -0 -0 -0 -0 -0 -1 -0 -0
-0 -0 -0 -0 -0 -0 -0 -0 -0 -0 -0 -0 -0 -0 -0 -0 -0 -0 -0 -1 -0 -0 -0 -0 -0 -1 -0 -0 -0 -0 -0 -0 -0 -0 -0 -0 -0 -12 -5 -0 -0 -0 -0 -0 -0
-0 -0 -1 -0 -0 -0 -0 -0 -0 -0 -0 -0 -0 -0 -0 -0 -0 -0 -0 -0 -0 -0 -0 -0 -0 -0 -0 -0 -1 -1 -0 -0 -0 -0 -0 -0 -4 -0 -0 -0 -0 -0 -0 -0 -0
-0 -0 -0 -0 -0 -0 -0 -0 -0 -0 -0 -0 -0 -0 -0 -0 -0 -0 -0 -0 -0 -0 -0 -5 -0 -1 -2 -0 -3 -0 -0 -0 -0 -0 -0 -0 -0 -0 -1 -0 -0 -0 -0 -0 -0
-0 -0 -0 -0 -0 -0 -0 -0 -0 -0 -0 -0 -0 -0 -0 -0 -0 -0 -0 -0 -0 -0 -0 -1 -0 -0 -0 -0 -1 -0 -0 -0 -0 -0 -0 -0 -4 -6 -0 -0 -0 -0 -0 -0 -0
-0 -0 -0 -0 -0 -0 -0 -0 -0 -0 -0 -0 -0 -0 -0 -0 -0 -0 -0 -0 -0 -0 -0 -0 -0 -1 -0 -0 -2 -4 -0 -1 -0 -0 -2 -0 -1 -0 -1 -0 -0 -0 -0 -0 -0
-0 -0 -0 -0 -0 -0 -0 -0 -0 -0 -0 -0 -0 -0 -0 -0 -0 -0 -0 -0 -0 -0 -0 -0 -2 -0 -0 -5 -0 -18 -12 -1 -0 -0 -0 -0 -0 -0 -0 -2 -0 -0 -0 -0 -0
-0 -0 -0 -0 -0 -0 -0 -0 -0 -0 -0 -0 -0 -0 -0 -0 -0 -0 -0 -0 -0 -0 -0 -0 -0 -0 -0 -0 -0 -0 -0 -1 -9 -0 -0 -0 -0 -6 -0 -0 -0 -0 -0 -0 -0
Wind_Speed
12 13 14 15 15 15 16 16 16 18 18 19 19 20 22 21 26 22 19 7 3 7 8 13 16 16 17 18 20 11 15 16 19 12 11 11 8 13 2 10 8 7 8 7 2
13 14 14 15 15 15 16 15 16 18 18 18 20 20 20 21 24 24 6 9 8 5 16 19 19 18 16 19 16 16 14 22 12 9 8 3 12 11 8 11 11 10 7 4 4
14 14 15 16 16 16 16 15 16 18 18 18 19 19 19 20 15 2 9 8 9 11 20 18 18 18 20 19 20 20 20 21 7 10 7 9 10 12 11 12 6 9 7 4 7
14 15 16 17 17 18 17 17 18 19 20 19 18 19 20 12 8 8 5 4 4 11 17 19 21 20 21 24 20 21 21 19 16 9 11 14 13 12 12 11 5 5 3 5 7
16 15 16 17 17 18 17 18 19 20 20 19 17 16 13 9 18 9 5 5 4 10 14 17 19 20 22 20 19 22 21 19 16 13 11 13 14 15 16 14 5 4 5 6 5
15 15 16 18 18 19 18 18 19 20 20 20 17 13 12 18 11 5 4 3 6 9 15 15 16 15 18 21 18 19 17 22 15 15 16 16 16 19 13 7 5 7 8 6 7
14 15 17 19 19 20 20 20 21 21 22 21 16 11 13 24 6 1 7 7 8 14 18 16 15 14 13 18 15 17 21 17 20 18 16 15 21 19 20 11 9 10 9 8 8
14 16 17 17 18 20 21 21 23 23 22 18 10 12 11 7 10 17 13 17 9 14 16 17 15 15 18 14 16 15 20 19 19 19 19 15 17 15 6 7 10 11 11 10 10
15 16 17 17 19 21 23 24 25 22 12 5 10 11 10 4 9 11 13 14 7 15 17 13 13 16 17 17 15 17 15 21 18 15 10 12 15 15 8 8 10 12 11 11 11
16 18 17 17 19 22 25 29 18 10 12 8 6 9 7 6 7 3 5 9 8 11 13 16 11 15 18 17 16 17 19 18 18 14 13 16 17 16 12 11 11 14 12 12 13
15 18 19 18 20 21 21 19 5 10 8 14 15 17 15 1 12 8 8 9 10 11 17 17 16 21 25 24 23 20 18 15 13 4 8 14 16 14 16 13 13 13 13 12 12
12 16 19 19 21 21 18 7 5 7 15 17 19 19 21 18 11 13 10 15 14 14 15 16 22 21 22 24 23 24 24 15 14 3 7 15 16 18 14 13 13 13 14 12 12
14 14 17 18 21 13 9 7 8 9 9 10 5 5 4 9 14 14 15 14 13 15 19 23 18 20 22 21 22 21 22 18 17 7 9 15 18 19 14 16 11 11 12 11 13
13 13 14 17 10 9 7 8 8 6 7 6 4 4 4 2 6 20 11 13 6 17 18 21 23 10 20 24 18 21 18 19 16 15 13 13 14 17 19 19 15 15 14 12 13
12 13 13 10 12 11 10 10 10 1 8 4 6 4 4 6 8 4 13 19 16 14 14 19 9 17 23 19 20 20 15 15 15 17 16 17 10 11 13 13 15 15 17 15 13
12 12 13 13 6 13 10 13 8 7 5 3 1 5 7 8 7 2 4 12 12 20 16 18 15 14 14 19 18 16 11 11 13 14 15 17 15 11 13 13 10 11 10 13 13
12 11 11 11 10 10 10 10 9 8 6 3 3 8 10 7 4 9 6 10 10 12 21 20 22 14 13 19 18 18 14 10 12 13 14 14 14 14 3 4 6 5 7 12 10
10 11 12 11 9 8 9 10 11 4 3 3 5 12 5 5 4 6 8 9 15 16 13 18 15 22 12 15 18 20 18 9 14 12 14 19 8 11 6 2 4 9 9 2 7
10 11 12 11 10 9 9 11 6 6 4 6 11 10 3 3 7 4 9 1 5 19 14 13 22 9 14 12 16 17 23 20 18 10 8 7 10 12 3 7 6 6 6 8 9
8 8 13 11 10 9 7 15 12 6 4 5 8 1 5 5 7 8 2 7 2 10 17 13 11 15 14 14 19 22 11 19 11 12 12 10 11 8 9 10 5 3 8 4 1
5 4 3 11 9 6 11 15 12 9 6 8 8 7 7 7 5 8 2 5 10 10 10 14 12 9 11 18 19 15 19 14 15 15 9 12 9 5 10 11 6 6 7 11 10
5 5 4 8 8 5 11 17 15 9 13 14 9 12 11 9 9 6 6 4 7 12 9 15 7 11 18 20 20 18 21 20 10 9 12 8 2 8 8 7 7 6 2 5 5
6 7 6 8 9 12 13 16 18 15 16 13 13 14 12 11 7 7 10 4 6 6 10 14 9 10 15 11 9 14 19 20 20 14 11 10 6 6 5 2 1 7 10 8 9
4 5 8 9 9 13 15 14 18 16 20 15 12 12 10 12 11 9 8 3 5 3 5 11 11 14 12 11 13 15 6 10 10 10 13 14 13 8 3 10 9 9 12 14 13
6 7 6 8 14 17 15 7 19 18 15 16 13 16 15 15 14 15 15 12 7 6 4 5 7 12 9 6 5 6 14 11 12 12 10 11 10 8 6 7 11 11 12 14 14
4 5 10 12 13 18 19 17 17 14 14 16 16 16 16 17 13 9 8 6 10 5 5 7 4 10 8 6 6 7 9 11 13 12 12 14 14 13 12 5 8 10 13 15 16
8 9 5 8 16 14 12 18 20 17 12 17 13 13 13 12 10 11 11 8 13 13 11 8 6 5 5 7 8 8 14 13 13 14 13 13 9 9 7 6 9 13 14 14 14
Wind_Direction
334 332 331 335 335 329 326 329 327 326 328 326 326 327 328 320 310 296 274 274 336 346 303 201 214 218 228 230 228 236 259 253 256 241 254 136 243 262 341 279 201 211 268 1 12
331 330 332 329 329 324 318 322 322 320 320 322 325 324 326 323 307 283 336 355 296 219 238 204 206 210 219 225 218 232 234 251 280 284 237 223 217 251 250 240 234 231 223 206 262
324 325 326 324 320 317 316 316 310 314 316 319 323 324 323 316 294 89 24 317 272 202 237 224 225 215 229 226 217 222 245 271 264 274 249 278 279 267 265 267 306 338 319 153 243
318 322 324 321 320 316 312 309 308 308 309 313 317 324 317 295 265 69 357 332 205 222 226 239 226 219 229 232 230 233 249 256 276 222 238 252 263 284 273 272 23 290 323 197 215
329 322 319 317 318 314 311 308 303 303 301 305 311 324 312 255 253 288 322 200 216 216 230 231 222 227 227 235 233 233 243 263 253 244 234 260 268 270 277 293 154 252 218 205 230
325 327 324 320 318 312 308 304 301 299 297 299 303 307 269 264 272 257 268 324 318 238 253 242 233 230 244 248 251 243 241 260 244 239 232 243 261 269 263 270 230 211 217 195 222
327 328 325 320 318 309 304 302 298 297 293 294 291 257 253 246 281 292 250 268 285 290 278 257 255 265 257 258 264 264 263 257 249 240 238 245 256 251 257 225 225 216 214 208 193
335 330 324 318 314 306 304 301 298 293 293 287 256 219 257 289 284 249 258 247 254 259 258 273 277 263 256 275 266 255 243 254 248 223 232 230 259 272 157 185 229 219 205 201 204
328 328 324 318 315 311 307 305 296 289 276 239 187 220 272 93 242 248 234 252 270 246 243 257 250 248 236 235 245 236 246 231 248 221 235 209 256 251 142 204 259 225 219 208 205
330 327 320 322 320 316 312 297 285 274 224 226 260 220 245 300 335 315 236 225 231 249 219 228 237 235 233 231 231 239 218 243 260 200 204 241 237 259 202 214 233 256 209 206 209
329 325 321 327 321 318 313 303 231 204 250 281 293 268 294 238 331 231 171 196 200 240 223 202 220 225 226 224 247 257 264 278 245 219 210 247 253 242 229 228 225 222 234 214 209
328 324 323 326 317 315 298 350 27 336 297 278 258 263 266 273 280 277 170 216 224 240 218 251 228 231 239 241 235 242 254 255 267 120 238 265 258 246 237 227 247 222 220 225 204
324 324 325 323 316 297 311 328 308 342 270 302 260 281 314 232 231 249 193 221 187 205 255 233 234 224 250 234 238 229 242 247 262 222 226 263 265 256 240 251 231 236 239 219 209
315 322 327 326 293 309 276 330 339 335 279 129 143 108 146 248 224 241 246 227 224 219 211 265 240 227 225 239 227 243 232 245 257 259 256 256 255 243 228 232 210 230 229 227 208
314 318 321 313 311 295 322 320 309 334 286 81 108 81 121 244 329 177 224 234 248 224 244 237 242 233 244 236 226 245 259 247 234 252 259 257 254 270 271 237 225 234 207 208 218
307 314 321 279 254 273 311 313 269 236 232 143 128 338 289 234 222 181 219 235 255 262 249 261 270 232 252 249 245 253 214 246 236 244 240 243 257 268 249 230 207 242 222 193 192
296 303 294 294 272 321 301 270 244 246 117 88 354 319 301 281 213 201 193 188 193 218 238 243 249 229 210 238 233 228 199 209 217 221 234 228 231 235 263 357 308 279 240 191 181
291 302 276 258 256 283 275 237 249 7 255 357 298 304 289 347 151 218 181 237 221 232 249 232 219 234 187 212 235 209 207 216 216 231 221 215 236 239 223 339 308 270 241 135 184
296 270 250 242 232 240 255 226 249 270 359 294 296 268 213 348 290 269 218 243 241 224 215 260 237 207 199 203 247 216 224 234 267 249 276 161 214 254 195 229 223 197 200 196 192
283 308 268 247 210 214 220 238 247 245 283 258 270 251 278 1 319 313 129 18 1 248 236 255 273 242 206 204 218 253 228 220 228 245 238 249 189 253 166 195 12 318 182 217 182
267 261 197 184 181 208 221 223 243 245 218 249 255 261 270 310 322 313 5 114 18 351 276 251 260 230 219 206 212 212 242 249 231 221 237 236 253 180 91 69 45 330 37 36 24
242 235 124 168 192 198 227 229 265 266 235 250 265 265 268 289 296 291 269 316 41 336 298 224 287 226 239 215 228 219 216 231 235 210 237 235 352 127 110 79 37 335 301 13 332
236 239 220 193 216 219 223 242 252 243 242 231 232 246 266 274 271 245 258 67 14 325 348 353 234 245 212 186 217 232 222 231 227 238 214 244 211 169 23 324 315 316 321 313 330
260 233 219 198 245 256 228 230 227 224 256 237 249 252 246 246 250 264 263 303 334 7 347 320 250 255 238 244 198 213 204 225 238 212 231 228 244 213 266 305 319 327 346 337 327
212 245 220 210 227 225 243 246 221 226 226 240 231 245 243 249 247 251 267 263 268 143 174 302 284 304 248 328 315 255 190 202 226 233 257 242 247 267 285 283 301 338 336 333 333
214 232 242 254 247 227 221 233 259 232 218 219 238 237 236 245 249 270 266 288 289 300 308 186 292 306 281 239 256 253 242 240 229 244 242 253 266 278 272 338 310 313 317 319 328
227 252 299 252 245 237 226 230 234 249 244 245 238 256 241 254 311 299 304 247 271 283 287 281 235 211 266 268 296 262 241 236 238 239 239 244 259 17 348 322 306 303 315 316 336